Find Starlink 35235

NORAD ID: 65682 Int'l Des: 2025-212 Owner: SPXS Country: US Constellation: starlink operational
LEOCIRCULAR

当前视图

正在加载3D地球...

About Starlink 35235

Starlink 35235 (NORAD 65682) is a starlink constellation satellite (v2 mini) launched Sep 21, 2025 by SPXS of US. It operates in LEO, CIRCULAR orbit with a mass of 575.00 kg.

关于 Starlink 35235

正在加载描述...

即将过境

Passes for default location (London). Set your location on the main map for personalized predictions.

高度历史

Loading altitude history...

两行轨道根数

1 65682U 25212G 26199.96924296 .00014537 00000-0 44052-3 0 9991
2 65682 53.1578 93.0136 0001535 105.1032 255.0141 15.34401502 47336
Epoch: Jul 18, 2026 • Age: 17 hours

当前状态

高度 470.2 km
远地点 / 近地点 N/A
速度 7.63 km/s
星下点 -23.59°S, 111.69°W
发射日期 Sep 21, 2025
运行时间 0.8 years
类型 internet

技术详情

分类 Payload
质量 575.00 kg
干质量 530.00 kg
总质量 575.00 kg
长度 0.30 m
直径 4.10 m
跨度 29.00 m
形状 Box + pan
制造商 SPXS
平台类型 Starlink V2MO
阶段状态 In Orbit
所有者/国家 SPXS/US

Most Searched